Location: Keppel Henge
(44.7900°N, 80.9447°W)
Time: 01:59:27
(UTC-04:00)

Vanguard 2 Rocket - All Passes

Search period start: 17 October 2017 00:00
Search period end: 27 October 2017 00:00
Orbit: 555 x 3327 km, 32.9° (Epoch: 16 October)

Date Brightness Start Highest point End Pass type
(mag) Time Alt. Az. Time Alt. Az. Time Alt. Az.
17 Oct - 12:26:15 10° SE 12:27:22 10° SE 12:28:32 10° SE daylight
17 Oct - 14:32:39 10° SW 14:38:57 34° SSE 14:49:13 10° E daylight
17 Oct - 16:43:49 10° WSW 16:52:34 45° S 17:07:11 10° ESE daylight
17 Oct - 18:56:45 10° W 19:07:38 36° SSW 19:23:26 10° SE visible
17 Oct - 21:13:32 10° WSW 21:23:02 18° SW 21:34:10 10° S visible
18 Oct - 13:34:50 10° SSW 13:39:52 25° SSE 13:47:21 10° ESE daylight
18 Oct - 15:45:11 10° WSW 15:52:38 43° S 16:05:16 10° ESE daylight
18 Oct - 17:57:24 10° WSW 18:07:06 39° SSW 18:22:16 10° SE daylight
18 Oct - 20:12:11 10° WSW 20:22:23 23° SSW 20:35:27 10° SSE visible
19 Oct - 12:37:43 10° S 12:41:04 16° SE 12:45:21 10° ESE daylight
19 Oct - 14:46:49 10° SW 14:53:06 37° SSE 15:03:28 10° ESE daylight
19 Oct - 16:58:24 10° WSW 17:06:52 41° S 17:20:46 10° SE daylight
19 Oct - 19:11:55 10° WSW 19:21:48 28° SSW 19:35:36 10° SSE visible
19 Oct - 21:34:10 10° SW 21:36:58 11° SW 21:39:51 10° SSW visible
20 Oct - 13:48:43 10° SW 13:53:53 29° SSE 14:01:52 10° ESE daylight
20 Oct - 15:59:41 10° WSW 16:06:57 40° S 16:19:07 10° ESE daylight
20 Oct - 18:12:18 10° WSW 18:21:23 32° SSW 18:35:00 10° SE daylight
20 Oct - 20:29:09 10° WSW 20:36:27 15° SW 20:45:07 10° S visible
21 Oct - 12:51:01 10° SSW 12:54:59 21° SSE 13:00:26 10° ESE daylight
21 Oct - 15:01:11 10° WSW 15:07:22 37° S 15:17:33 10° ESE daylight
21 Oct - 17:13:09 10° WSW 17:21:12 34° SSW 17:33:57 10° SE daylight
21 Oct - 19:27:50 10° WSW 19:36:00 20° SSW 19:46:38 10° S visible
22 Oct - 11:54:14 10° S 11:56:16 12° SE 11:58:37 10° ESE daylight
22 Oct - 14:02:56 10° SW 14:08:04 32° SSE 14:16:10 10° ESE daylight
22 Oct - 16:14:19 10° WSW 16:21:18 35° S 16:32:41 10° SE daylight
22 Oct - 18:27:41 10° WSW 18:35:41 23° SSW 18:46:55 10° SSE daylight
23 Oct - 13:04:54 10° SW 13:09:04 25° SSE 13:15:03 10° ESE daylight
23 Oct - 15:15:44 10° WSW 15:21:42 34° S 15:31:24 10° ESE daylight
23 Oct - 17:28:13 10° WSW 17:35:35 26° SSW 17:46:32 10° SSE daylight
23 Oct - 19:46:07 10° SW 19:50:15 12° SSW 19:54:55 10° SSW visible
24 Oct - 12:07:15 10° SSW 12:10:16 17° SSE 12:14:02 10° ESE daylight
24 Oct - 14:17:20 10° SW 14:22:24 32° S 14:30:17 10° ESE daylight
24 Oct - 16:29:12 10° WSW 16:35:43 28° SSW 16:45:47 10° SE daylight
24 Oct - 18:44:10 10° WSW 18:50:02 15° SSW 18:57:24 10° S visible
25 Oct - 13:19:07 10° SW 13:23:19 26° SSE 13:29:24 10° ESE daylight
25 Oct - 15:30:27 10° WSW 15:36:07 29° S 15:44:56 10° SE daylight
25 Oct - 17:43:57 10° WSW 17:50:00 18° SSW 17:58:09 10° SSE daylight
26 Oct - 12:21:05 10° SSW 12:24:26 20° SSE 12:28:46 10° ESE daylight
26 Oct - 14:31:56 10° WSW 14:36:47 28° S 14:44:08 10° SE daylight
26 Oct - 16:44:30 10° WSW 16:50:10 21° SSW 16:58:12 10° SSE daylight
